Location: �bnet
(46.9957°N, 8.4908°E)
Time: 16:11:15
(UTC+00:00)

Cosmos 468 - Pass Details

Date: 11 May 2021
Orbit: 762 x 783 km, 74.0° (Epoch: 17 June)

Event Time Altitude Azimuth Distance (km) Brightness Sun altitude
Rises 23:10:18 0° 337° (NNW) 3,263 8.9 -24.8°
Reaches altitude 10° 23:12:42 10° 337° (NNW) 2,328 7.9 -24.8°
Maximum altitude 23:18:00 85° 249° (WSW) 779 4.4 -24.9°
Enters shadow 23:18:27 75° 180° (S) 801 4.3 -24.9°
